Main page
METAR-TAF:

METAR-TAF

Airports :

Sarh Airport

Sarh, Chad

latitude: 09-09N, longitude: 018-23E, elevation: 365 m

Current weather observation

The report was made 1 hour and 30 minutes ago, at 02:00 UTC
Calm wind
Temperature 23°C
Humidity 83%
Pressure 1013 hPa
Visibility 10 km or more
Few clouds at a height of 2000 ft
Few clouds at a height of 5000 ft, Cumulonimbus.
thunderstorm

METAR: FTTA 260200Z 00000KT 9999 TS FEW020 FEW050CB 23/20 Q1013

Time: 04:30 (03:30 UTC)


TAF: missing

Weather observations and forecasts of more than 4000 airports (METAR and TAF reports).

The available stations are represented by yellow and red dots on the map.

Hover mouse over dot to see the name of the station.

Then click to see weather observations and forecasts.

To change the map : click on the green buttons with a black cross to zoom in, on the green button with a dash to zoom out, or on the green arrows for adjacent maps.


METAR-TAF: